Location: *
(43.9900°N, 3.4811°E)
Time: 14:08:13
(UTC+00:00)

Terra - Pass Details

Date: 25 August 2019
Orbit: 701 x 703 km, 98.2° (Epoch: 20 September)

Event Time Altitude Azimuth Distance (km) Brightness Sun altitude
Exits shadow 20:53:14 30° 64° (ENE) 1,263 2.9 -22.5°
Drops below altitude 10° 20:57:15 10° 7° (N) 2,180 4.8 -23.0°
Sets 20:59:44 0° 357° (N) 3,102 5.8 -23.4°
